Regional Weather Roundup
Issued by NWS

Home | Current Version | Previous Version | Text Only | Print | Product List | Glossary On
Versions: 1 2 3 4 5 6 7 8 9 10 11 12 13 14 15 16 17 18 19 20 21 22 23 24 25 26 27 28 29 30 31 32 33 34 35 36 37 38 39 40 41 42 43 44 45 46 47 48 49 50
798
ASUS43 KTOP 110559
RWRKS

WEATHER ROUNDUP FOR KANSAS
NATIONAL WEATHER SERVICE GOODLAND KS
1200 AM CST THU FEB 11 2016

NOTE:  "FAIR" INDICATES FEW OR NO CLOUDS BELOW 12,000 FEET WITH NO
SIGNIFICANT WEATHER AND/OR OBSTRUCTIONS TO VISIBILITY.

KSZ001>006-013>018-027>032-041>047-110700-
NORTHWEST KANSAS

CITY           SKY/WX    TMP DP  RH WIND       PRES   REMARKS
GOODLAND       CLOUDY    38  27  64 NW12      30.14R WCI  30
6HR MIN TEMP:  38; 6HR MAX TEMP:  50;

HAYS           CLOUDY    43  27  52 NE14G20   30.09R
HILL CITY      CLOUDY    38  30  73 CALM      30.12R
6HR MIN TEMP:  38; 6HR MAX TEMP:  50;

RUSSELL        CLOUDY    39  31  72 N13       30.07R WCI  31
6HR MIN TEMP:  36; 6HR MAX TEMP:  54;

$$

KSZ061>065-074>080-084>089-110700-
SOUTHWEST KANSAS

CITY           SKY/WX    TMP DP  RH WIND       PRES   REMARKS
DODGE CITY     CLOUDY    41  25  53 NW9       30.07R
6HR MIN TEMP:  39; 6HR MAX TEMP:  62;

ELKHART          N/A     44  16  32 NW3         N/A
GARDEN CITY    CLOUDY    44  27  51 N15       30.07R
6HR MIN TEMP:  42; 6HR MAX TEMP:  61;

GREAT BEND     CLOUDY    41  27  56 N13       30.06R
LIBERAL        CLOUDY    36  18  48 CALM      30.09R
$$

KSZ066>073-081>083-090>101-110700-
SOUTHEAST KANSAS

CITY           SKY/WX    TMP DP  RH WIND       PRES   REMARKS
CHANUTE        CLEAR     36  25  64 NE6       29.98R
6HR MIN TEMP:  31; 6HR MAX TEMP:  50;

COFFEYVILLE    CLEAR     34  26  72 CALM      29.97R
6HR MIN TEMP:  31; 6HR MAX TEMP:  54;

HUTCHINSON     CLEAR     35  26  69 NW6       30.04R
6HR MIN TEMP:  34; 6HR MAX TEMP:  61;

MEDICINE LODGE   N/A     41  28  60 N7        30.01R
NEWTON         CLEAR     36  27  69 N10       30.03R WCI  28
PARSONS        CLEAR     33  26  75 NE5       29.98R
6HR MIN TEMP:  29; 6HR MAX TEMP:  55;

WICHITA INTL   PTCLDY    40  28  62 NW8       30.01R
6HR MIN TEMP:  40; 6HR MAX TEMP:  64;

WICHITA JABRA  CLEAR     38  29  70 N6        30.01R
6HR MIN TEMP:  37; 6HR MAX TEMP:  63;

WINFIELD       CLEAR     43  29  57 N6        30.01R
6HR MIN TEMP:  41; 6HR MAX TEMP:  62;

$$

KSZ007>012-019>026-033>040-048>060-102>105-110700-
NORTHEAST KANSAS

CITY           SKY/WX    TMP DP  RH WIND       PRES   REMARKS
CONCORDIA      CLEAR     32  27  81 NE9       30.10R
6HR MIN TEMP:  32; 6HR MAX TEMP:  48;

EMPORIA        CLEAR     35  28  75 N6        30.01R
6HR MIN TEMP:  34; 6HR MAX TEMP:  58;

LAWRENCE       CLEAR     29  21  72 NE15G21   30.08R WCI  18
6HR MIN TEMP:  29; 6HR MAX TEMP:  47;

MANHATTAN      CLEAR     37  28  70 N10       30.07R WCI  30
6HR MIN TEMP:  36; 6HR MAX TEMP:  56;

OLATHE IND     CLEAR     29  21  72 NE13      30.05R WCI  19
6HR MIN TEMP:  29; 6HR MAX TEMP:  46;

OLATHE EXE     CLEAR     28  20  71 NE14      30.05R WCI  17
6HR MIN TEMP:  28; 6HR MAX TEMP:  46;

SALINA         CLEAR     36  28  73 N8        30.07R
6HR MIN TEMP:  36; 6HR MAX TEMP:  57;

TOPEKA BILLARD CLEAR     33  21  61 NE15      30.08R WCI  23
6HR MIN TEMP:  33; 6HR MAX TEMP:  52;

TOPEKA FORBES  CLEAR     35  23  61 N10       30.05R WCI  27
6HR MIN TEMP:  35; 6HR MAX TEMP:  50;

$$




USA.gov is the U.S. government's official web portal to all federal, state and local government web resources and services.